This demonstration page uses our WeatherBlox Daily Observations layout. Learn more.

Left ArrowRight Arrow

Hourly Observations for January 21, 2015

Temp ( °F °C ) Dew Point ( °F °C ) Humidity (%) Winds ( mph kmh ) Pressure ( in mb ) Visibility ( mi km ) Precip ( " mm )
12:53 am 00:53 Clear 42 5.6 36 2.2 79 79 Calm 29.99 1016 10 16 0.00 0.00
1:53 am 01:53 Clear 39 3.9 35 1.7 86 86 Calm 29.99 1016 10 16 0.00 0.00
2:53 am 02:53 Clear 38 3.3 34 1.1 86 86 Calm 30.00 1016 10 16 0.00 0.00
4:53 am 04:53 Clear 36 2.2 34 1.1 93 93 Calm 30.01 1016 10 16 0.00 0.00
5:53 am 05:53 Clear 37 2.8 34 1.1 89 89 Calm 30.02 1017 10 16 0.00 0.00
6:53 am 06:53 Clear 36 2.2 32 0 86 86 Calm 30.05 1018 10 16 0.00 0.00
7:53 am 07:53 Sunny 35 1.7 32 0 89 89 Calm 30.08 1019 10 16 0.00 0.00
8:53 am 08:53 Sunny 44 6.7 37 2.8 76 76 NW 5 7 30.09 1019 10 16 0.00 0.00
9:53 am 09:53 Sunny 51 10.6 35 1.7 54 54 NW 8 13 30.11 1020 10 16 0.00 0.00
10:53 am 10:53 Sunny 56 13.3 36 2.2 47 47 VRB 7 11 30.13 1020 10 16 0.00 0.00
11:53 am 11:53 Sunny 59 15 35 1.7 41 41 NW 8 13 30.12 1020 10 16 0.00 0.00
12:53 pm 12:53 Sunny 60 15.6 34 1.1 38 38 WNW 9 15 30.10 1019 10 16 0.00 0.00
1:53 pm 13:53 Sunny 62 16.7 34 1.1 35 35 NW 9 15 30.08 1019 10 16 0.00 0.00
2:53 pm 14:53 Sunny 62 16.7 29 -1.7 29 29 WNW 15 24 30.08 1019 10 16 0.00 0.00
3:53 pm 15:53 Sunny 62 16.7 28 -2.2 28 28 NW 9 15 30.09 1019 10 16 0.00 0.00
4:53 pm 16:53 Sunny 61 16.1 29 -1.7 30 30 NNW 7 11 30.09 1019 10 16 0.00 0.00
5:53 pm 17:53 Sunny 57 13.9 29 -1.7 34 34 NW 6 9 30.11 1020 10 16 0.00 0.00
6:53 pm 18:53 Clear 52 11.1 29 -1.7 41 41 Calm 30.14 1021 10 16 0.00 0.00
7:53 pm 19:53 Clear 47 8.3 31 -0.6 54 54 Calm 30.16 1021 10 16 0.00 0.00
8:53 pm 20:53 Clear 43 6.1 31 -0.6 63 63 Calm 30.16 1021 10 16 0.00 0.00
9:53 pm 21:53 Clear 43 6.1 29 -1.7 58 58 Calm 30.19 1022 10 16 0.00 0.00
10:53 pm 22:53 Clear 46 7.8 26 -3.3 46 46 Calm 30.19 1022 10 16 0.00 0.00
11:53 pm 23:53 Clear 44 6.7 26 -3.3 49 49 Calm 30.20 1023 10 16 0.00 0.00

Powered by AerisWeather